Home > Time Zones > World Clock > Weather > Iran > Rasht > Past weeks

Flag for Iran Weather past 2 weeks in Rasht, Iran

Now
75 °F

Broken clouds.


Feels Like: 75 °F
Forecast: 63 / 92 °F
Wind: 5 mph from Northeast

Location: Rasht Airport

Current Time: Sep 23, 2014 at 7:00:23 PM

Latest Report: Sep 23, 2014 at 6:30 PM


Visibility: N/A

Pressure: 29.80 "Hg

Humidity: 83%

Dew point: 70 °F

Location of RashtLocation

Historic Weather in Rasht — Graph

°F

Rasht temperature yesterday

Maximum temperature yesterday: 73 °F (at 12:30 PM)
Minimum temperature yesterday: 68 °F (at 7:30 AM)
Average temperature yesterday: 71 °F

Past Weeks' High & Low Weather Summary

 TemperatureHumidityPressure
High90 °F (Sep 9, 3:30 PM)100% (Sep 9, 6:30 AM)30.09 "Hg (Sep 9, 6:30 AM)
Low66 °F (Sep 15, 7:30 AM)40% (Sep 16, 12:30 PM)29.68 "Hg (Sep 9, 3:30 PM)
Average77 °F76%29.87 "Hg
* Reported Sep 8 6:30 PM — Sep 23 6:00 PM, Rasht, Weather by CustomWeather, © 2014

Note: Actual official high and low records may vary slightly from our data, if they occured in-between our weather recording intervals... More about our weather records

Advertising

Rasht weather history for previous 24 hours

 ConditionsComfort  
Time TempWeatherWind HumidityBarometerVisibility
6:00 PM
Sep 23
77 °FBroken clouds.7 mph79%29.80 "HgN/A
5:30 PM77 °FBroken clouds.7 mph79%29.80 "HgN/A
5:00 PM79 °FBroken clouds.9 mph70%29.80 "HgN/A
4:30 PM79 °FBroken clouds.9 mph70%29.80 "HgN/A
4:00 PM81 °FBroken clouds.14 mph70%29.80 "HgN/A
3:30 PM81 °FBroken clouds.14 mph70%29.80 "HgN/A
3:00 PM81 °FScattered clouds.9 mph66%29.80 "HgN/A
2:30 PM81 °FScattered clouds.9 mph66%29.80 "HgN/A
2:00 PM79 °FScattered clouds.5 mph74%29.80 "HgN/A
1:30 PM79 °FScattered clouds.5 mph74%29.80 "HgN/A
1:00 PM79 °FScattered clouds.5 mph70%29.83 "Hg5 mi
12:30 PM79 °FScattered clouds.5 mph70%29.83 "Hg5 mi
12:00 PM79 °FPartly sunny.5 mph70%29.83 "Hg5 mi
11:30 AM79 °FPartly sunny.5 mph70%29.83 "Hg5 mi
11:00 AM77 °FPartly sunny.5 mph79%29.86 "Hg5 mi
10:30 AM77 °FPartly sunny.5 mph79%29.86 "Hg5 mi
10:00 AM73 °FPartly sunny.5 mph83%29.86 "Hg4 mi
9:30 AM73 °FPartly sunny.5 mph83%29.86 "Hg4 mi
9:00 AM72 °FBroken clouds.2 mph88%29.86 "Hg4 mi
8:30 AM72 °FBroken clouds.2 mph88%29.86 "Hg4 mi
8:00 AM72 °FBroken clouds.2 mph94%29.86 "Hg4 mi
7:30 AM70 °FFog.No wind94%29.86 "Hg3 mi
7:00 AM68 °FFog.No wind100%29.83 "Hg2 mi
6:30 AM68 °FFog.No wind100%29.83 "Hg2 mi
5:30 AM68 °FFog.No wind100%29.83 "Hg3 mi
4:30 AM70 °FLight rain. Mostly cloudy.2 mph94%29.83 "Hg2 mi
10:30 PM
Sep 22
70 °FFog.2 mph94%29.89 "Hg2 mi
9:30 PM70 °FFog.2 mph94%29.89 "Hg2 mi
9:00 PM70 °FFog.2 mph94%29.86 "Hg2 mi
8:30 PM70 °FFog.2 mph94%29.86 "Hg2 mi
8:00 PM70 °FFog.7 mph100%29.86 "Hg2 mi
7:30 PM70 °FFog.2 mph100%29.86 "Hg2 mi
7:00 PM72 °FFog.2 mph94%29.86 "Hg2 mi
Weather by CustomWeather, © 2014

See weather overviewHow to use our weather pages